[[{"header":{"parameterUnit":"m.s-1","parameterCategory":1,"la1":30.2991,"la2":30.254,"lo1":-89.0895,"lo2":-89.0444,"dy":0.0017,"dx":0.0017,"nx":28,"ny":28,"refTime":"2024-04-17T21:00:00:Z","depth":0,"parameterNumber":2,"parameterNumberName":"U-component_of_WINDS"},"data":[0,0,0,0,0,0,0,0,0,0,0,0,0,0,0,0,0,0,0,0,0,0,0,0,0,0,0,0,0,0,0,0,0,0,0,0,0,0,0,0,0,0,0,0,0,0,0,0,0,0,0,0,0,0,0,0,0,0,-0.407,-0.407,0,-0.4044,-0.4043,-0.4043,-0.4036,-0.4036,-0.4037,-0.4037,-0.401,-0.4009,-0.4008,0,0,0,0,0,0,0,0,0,0,0,0,0,-0.4116,-0.4115,-0.407,-0.407,-0.4069,-0.4044,-0.4043,-0.4043,-0.4036,-0.4036,-0.4037,-0.4037,-0.401,-0.4009,-0.4008,0,0,0,0,0,0,0,0,0,0,0,0,0,-0.4093,-0.4115,-0.407,-0.4063,-0.4062,-0.4044,-0.4043,-0.4043,-0.4036,-0.4036,-0.4037,-0.4037,-0.4011,-0.4009,-0.4008,-0.3995,0,0,-0.4004,-0.4004,0,0,0,0,0,0,0,0,-0.4095,-0.4092,-0.4064,-0.4063,-0.4062,-0.4044,-0.405,-0.4027,-0.4036,-0.4046,-0.4037,-0.4037,-0.4021,-0.4019,-0.4013,-0.3994,-0.3993,-0.4004,-0.4003,-0.4003,-0.4002,0,0,0,0,0,0,0,-0.4096,-0.4093,-0.406,-0.4064,-0.4063,-0.4061,-0.4058,-0.4045,-0.4032,-0.4045,-0.4045,-0.4042,-0.402,-0.4015,-0.4013,-0.3992,-0.4004,-0.4003,-0.4002,-0.4002,-0.3962,-0.3962,0,0,0,0,0,0,-0.4099,-0.4094,-0.4061,-0.4059,-0.4079,-0.406,-0.4057,-0.4049,-0.4033,-0.403,-0.4041,-0.4041,-0.4017,-0.4014,-0.4012,-0.3996,-0.4003,-0.4001,-0.4001,-0.3962,-0.3962,-0.3962,0,0,0,0,0,0,-0.41,-0.4096,-0.4062,-0.4076,-0.4072,-0.4059,-0.4051,-0.4049,-0.4043,-0.403,-0.4027,-0.4038,-0.4017,-0.4014,-0.4,-0.3995,-0.4001,-0.4,-0.3963,-0.3962,-0.3962,-0.3964,0,0,0,0,0,0,-0.4101,-0.4096,-0.4091,-0.4076,-0.4071,-0.405,-0.405,-0.4048,-0.4041,-0.404,-0.4026,-0.4023,-0.4017,-0.4002,-0.3998,-0.3993,-0.3999,-0.3963,-0.3962,-0.3962,-0.3964,-0.3964,-0.3963,0,0,0,0,0,-0.4103,-0.4093,-0.4091,-0.4087,-0.4064,-0.4049,-0.4046,-0.4039,-0.404,-0.4035,-0.4027,-0.4024,-0.3996,-0.4,-0.3996,-0.3991,-0.3963,-0.3963,-0.3962,-0.3965,-0.3964,-0.3963,0,0,0,0,0,0,-0.4107,-0.409,-0.4088,-0.4073,-0.4063,-0.4048,-0.4041,-0.4038,-0.4027,-0.4027,-0.4019,-0.4015,-0.4002,-0.3995,-0.4,-0.3978,-0.398,-0.3978,-0.3983,-0.3982,-0.3982,-0.3983,-0.3998,0,0,0,0,0,-0.4106,-0.4095,-0.4081,-0.4069,-0.4064,-0.4054,-0.4047,-0.4042,-0.4031,-0.4027,-0.4017,-0.4007,-0.3996,-0.3989,-0.3978,-0.3964,-0.396,-0.3958,-0.3957,-0.3957,-0.3956,-0.3948,-0.3947,-0.396,-0.396,-0.396,0,0,-0.4104,-0.4094,-0.4087,-0.407,-0.4061,-0.405,-0.405,-0.4038,-0.403,-0.4025,-0.4011,-0.4004,-0.3992,-0.3978,-0.3971,-0.3972,-0.3952,-0.3956,-0.3956,-0.3955,-0.3948,-0.3947,-0.3946,-0.3959,-0.3959,-0.3959,0,0,-0.4095,-0.4086,-0.4075,-0.4067,-0.4054,-0.4047,-0.4044,-0.4031,-0.4026,-0.4012,-0.4008,-0.3998,-0.3979,-0.3971,-0.3964,-0.3953,-0.395,-0.395,-0.3947,-0.394,-0.3939,-0.3938,-0.3934,-0.3933,-0.3949,-0.3949,-0.3949,0,-0.4094,-0.4078,-0.407,-0.4059,-0.4051,-0.4046,-0.4035,-0.4027,-0.4012,-0.4007,-0.4008,-0.3984,-0.3976,-0.396,-0.3957,-0.3952,-0.3949,-0.3951,-0.394,-0.3939,-0.3938,-0.3934,-0.3933,-0.3949,-0.3949,-0.3949,-0.3949,0,-0.4077,-0.4066,-0.4059,-0.4044,-0.4036,-0.4025,-0.4016,-0.4009,-0.4005,-0.3998,-0.3984,-0.3974,-0.3961,-0.3957,-0.3953,-0.3941,-0.3942,-0.3941,-0.3943,-0.3937,-0.3933,-0.3932,-0.3949,-0.3949,-0.3949,-0.3949,0,0,-0.407,-0.4051,-0.4048,-0.4042,-0.4028,-0.4019,-0.4008,-0.3996,-0.399,-0.3979,-0.397,-0.3955,-0.3954,-0.3947,-0.3942,-0.3936,-0.3928,-0.3936,-0.3936,-0.3935,-0.3915,-0.3915,-0.3914,-0.3926,-0.3926,-0.3926,-0.3916,0,-0.4059,-0.4039,-0.4032,-0.4016,-0.4005,-0.4001,-0.3991,-0.3982,-0.3976,-0.3966,-0.3959,-0.3949,-0.3949,-0.3944,-0.3938,-0.393,-0.3924,-0.3931,-0.3918,-0.3918,-0.3921,-0.3912,-0.3912,-0.3903,-0.3914,-0.3914,-0.3914,0,-0.4043,-0.4033,-0.4015,-0.4003,-0.3998,-0.399,-0.3979,-0.397,-0.3959,-0.3955,-0.3947,-0.3943,-0.3932,-0.3934,-0.3919,-0.3925,-0.3919,-0.3915,-0.3914,-0.3912,-0.3915,-0.391,-0.39,-0.3898,-0.3912,-0.3912,-0.3912,0,-0.4039,-0.4021,-0.4008,-0.4003,-0.3988,-0.3982,-0.3976,-0.3966,-0.3959,-0.3949,-0.3945,-0.3934,-0.3928,-0.3919,-0.3913,-0.3915,-0.3898,-0.39,-0.3895,-0.3895,-0.3891,-0.3891,-0.388,-0.3888,-0.3888,-0.3888,-0.3888,0,-0.4028,-0.4017,-0.4006,-0.3999,-0.3987,-0.398,-0.3969,-0.3962,-0.3953,-0.3945,-0.394,-0.3932,-0.3923,-0.3915,-0.3909,-0.3898,-0.3895,-0.3892,-0.389,-0.3892,-0.3892,-0.3888,-0.3888,-0.3888,-0.3888,-0.3888,-0.3888,0,-0.4021,-0.4013,-0.3999,-0.3987,-0.3984,-0.3976,-0.3965,-0.3958,-0.3952,-0.3941,-0.3938,-0.3928,-0.3917,-0.391,-0.3896,-0.3893,-0.388,-0.3879,-0.3884,-0.3883,-0.3878,-0.3879,-0.3863,-0.3861,-0.3871,-0.3871,-0.387,0,-0.4014,-0.4006,-0.3993,-0.3987,-0.3981,-0.397,-0.3964,-0.3956,-0.395,-0.3938,-0.3932,-0.3921,-0.3911,-0.3895,-0.3887,-0.3876,-0.3875,-0.387,-0.3873,-0.3875,-0.3875,-0.3875,-0.3875,-0.3869,-0.3869,-0.3869,-0.3869,0,-0.4003,-0.4,-0.399,-0.3979,-0.3971,-0.3962,-0.3953,-0.3948,-0.3939,-0.3932,-0.3921,-0.3914,-0.39,-0.3889,-0.3878,-0.3872,-0.3869,-0.3868,-0.3867,-0.3868,-0.3871,-0.387,-0.3882,-0.3869,-0.3869,-0.3869,-0.3869,-0.3869,-0.3996,-0.3989,-0.3979,-0.3968,-0.3961,-0.3952,-0.3945,-0.3938,-0.3929,-0.3917,-0.3913,-0.3902,-0.3892,-0.3877,-0.3871,-0.3863,-0.3863,-0.386,-0.386,-0.3859,-0.3859,-0.3873,-0.3861,-0.3861,-0.3861,-0.3861,-0.3861,0,-0.3985,-0.3978,-0.3968,-0.3956,-0.3948,-0.3946,-0.3936,-0.3929,-0.3919,-0.3911,-0.3902,-0.389,-0.3879,-0.3871,-0.3861,-0.3855,-0.3854,-0.3853,-0.3853,-0.3852,-0.3859,-0.3862,-0.3854,-0.3854,-0.3854,-0.3854,-0.3854,-0.3854,-0.3978,-0.3966,-0.3961,-0.3946,-0.3939,-0.3928,-0.3922,-0.3915,-0.3908,-0.3895,-0.3886,-0.3881,-0.3872,-0.3861,-0.3852,-0.385,-0.3846,-0.3846,-0.3843,-0.385,-0.3851,-0.3852,-0.3854,-0.3845,-0.3845,-0.3836,-0.3836,-0.3836]},{"header":{"parameterUnit":"m.s-1","parameterCategory":1,"la1":30.2991,"la2":30.254,"lo1":-89.0895,"lo2":-89.0444,"dy":0.0017,"dx":0.0017,"nx":28,"ny":28,"refTime":"2024-04-17T21:00:00:Z","depth":0,"parameterNumber":3,"parameterNumberName":"V-component_of_WINDS"},"data":[0,0,0,0,0,0,0,0,0,0,0,0,0,0,0,0,0,0,0,0,0,0,0,0,0,0,0,0,0,0,0,0,0,0,0,0,0,0,0,0,0,0,0,0,0,0,0,0,0,0,0,0,0,0,0,0,0,0,3.8181,3.8182,0,3.8231,3.8231,3.8232,3.8195,3.8193,3.8191,3.819,3.8234,3.8237,3.824,0,0,0,0,0,0,0,0,0,0,0,0,0,3.8049,3.8051,3.8181,3.8182,3.8183,3.8231,3.8231,3.8232,3.8195,3.8193,3.8191,3.8189,3.8234,3.8237,3.824,0,0,0,0,0,0,0,0,0,0,0,0,0,3.8103,3.8052,3.8181,3.817,3.817,3.8231,3.8231,3.8232,3.8195,3.8193,3.819,3.8188,3.8233,3.8236,3.824,3.8313,0,0,3.8253,3.8254,0,0,0,0,0,0,0,0,3.81,3.8108,3.8171,3.8171,3.817,3.8204,3.8201,3.8259,3.8196,3.8185,3.819,3.8187,3.8226,3.823,3.8245,3.8315,3.8317,3.8253,3.8256,3.8257,3.8258,0,0,0,0,0,0,0,3.8096,3.8105,3.8201,3.8172,3.8172,3.816,3.8166,3.8212,3.8218,3.8186,3.8183,3.819,3.8225,3.8241,3.8245,3.8318,3.8253,3.8257,3.8259,3.8261,3.8451,3.8453,0,0,0,0,0,0,3.8094,3.8103,3.8199,3.8202,3.8129,3.8165,3.817,3.8196,3.8218,3.8219,3.8192,3.8188,3.8235,3.8241,3.8247,3.8334,3.8257,3.8261,3.8263,3.8448,3.8451,3.8454,0,0,0,0,0,0,3.8092,3.8103,3.8197,3.8152,3.8163,3.817,3.8198,3.8198,3.8214,3.8222,3.8223,3.8207,3.8234,3.8241,3.8297,3.8335,3.8263,3.8266,3.8445,3.8449,3.8453,3.8508,0,0,0,0,0,0,3.8088,3.8103,3.8132,3.8153,3.8166,3.8249,3.8201,3.8201,3.8221,3.8217,3.8237,3.8238,3.8232,3.8292,3.8301,3.8339,3.827,3.8442,3.8447,3.8451,3.8503,3.8514,3.8523,0,0,0,0,0,3.8084,3.8144,3.8134,3.8145,3.8203,3.8251,3.8258,3.8252,3.8225,3.8253,3.8259,3.8237,3.8329,3.8298,3.8308,3.8348,3.8439,3.8445,3.8451,3.8499,3.8512,3.8523,0,0,0,0,0,0,3.8125,3.8147,3.8135,3.8205,3.8227,3.8245,3.8281,3.8266,3.8294,3.8289,3.8278,3.8283,3.8342,3.835,3.8315,3.8419,3.8379,3.8388,3.8412,3.8425,3.8434,3.8431,3.8273,0,0,0,0,0,3.8143,3.8183,3.8199,3.8258,3.827,3.8274,3.8295,3.8288,3.831,3.8318,3.8328,3.8348,3.8381,3.8403,3.8434,3.8504,3.8508,3.8536,3.8546,3.8554,3.8561,3.8599,3.8612,3.8474,3.8473,3.8473,0,0,3.8179,3.8196,3.8221,3.8267,3.8284,3.8323,3.8282,3.8325,3.8354,3.8324,3.8379,3.8386,3.8407,3.8471,3.8499,3.848,3.86,3.8562,3.8568,3.8571,3.8606,3.8619,3.8631,3.8478,3.8477,3.8476,0,0,3.8266,3.8283,3.8335,3.8353,3.8378,3.838,3.8393,3.8413,3.8418,3.8473,3.8451,3.8484,3.8542,3.8558,3.8574,3.8667,3.8648,3.8677,3.8728,3.8765,3.8776,3.8785,3.8819,3.8831,3.8684,3.8685,3.8685,0,3.8307,3.8369,3.8363,3.8409,3.8429,3.8406,3.8458,3.8474,3.8508,3.8522,3.8499,3.8572,3.8584,3.8651,3.8674,3.8688,3.8701,3.8675,3.8775,3.8785,3.8793,3.8825,3.8837,3.8688,3.8688,3.8687,3.8687,0,3.8418,3.846,3.8499,3.8535,3.8559,3.8608,3.8608,3.8633,3.8625,3.8628,3.8684,3.8698,3.8732,3.8747,3.8739,3.8813,3.88,3.8777,3.8736,3.881,3.884,3.8852,3.8693,3.8692,3.8691,3.869,0,0,3.8532,3.8566,3.858,3.8596,3.8623,3.8654,3.8701,3.8736,3.8758,3.8781,3.882,3.8869,3.8848,3.8866,3.8858,3.8891,3.8963,3.8863,3.8863,3.8881,3.9046,3.9064,3.9078,3.8951,3.8953,3.8955,3.9044,0,3.8621,3.8705,3.8701,3.8779,3.8818,3.8796,3.8837,3.8856,3.8861,3.8893,3.8897,3.8933,3.8901,3.8912,3.8943,3.8948,3.8996,3.8941,3.8985,3.8987,3.8981,3.9094,3.9113,3.9196,3.9056,3.9058,3.9059,0,3.8735,3.8766,3.8848,3.887,3.8885,3.8922,3.8954,3.8985,3.9007,3.9008,3.9028,3.9016,3.9061,3.902,3.9082,3.9044,3.9062,3.9067,3.907,3.9074,3.9028,3.9101,3.9223,3.9236,3.9077,3.9076,3.9074,0,3.8811,3.8872,3.8929,3.8943,3.897,3.8996,3.9008,3.9027,3.9048,3.9075,3.9089,3.912,3.9137,3.9161,3.9156,3.9127,3.9219,3.9178,3.922,3.9221,3.9241,3.924,3.9368,3.9252,3.9252,3.9252,3.9251,0,3.891,3.8961,3.8964,3.8999,3.9055,3.905,3.9105,3.9113,3.9131,3.9166,3.9148,3.9181,3.9173,3.9205,3.9201,3.9253,3.9261,3.9262,3.926,3.9264,3.9264,3.9275,3.9269,3.9255,3.9254,3.9254,3.9253,0,3.9004,3.9008,3.9069,3.909,3.9096,3.9137,3.9153,3.9185,3.9189,3.9233,3.9243,3.9248,3.9285,3.9283,3.9324,3.9321,3.9385,3.9377,3.9379,3.9377,3.942,3.9417,3.9561,3.9579,3.9451,3.9452,3.9453,0,3.9068,3.9107,3.9132,3.9156,3.917,3.9208,3.923,3.9225,3.9249,3.9276,3.9305,3.9341,3.9369,3.9429,3.9435,3.9466,3.9458,3.9506,3.9463,3.9465,3.9459,3.9457,3.9461,3.9515,3.9517,3.9518,3.9519,0,3.918,3.918,3.9214,3.9249,3.9277,3.9303,3.9328,3.9347,3.9345,3.9372,3.9411,3.9433,3.9476,3.9511,3.9541,3.9551,3.9534,3.9533,3.9544,3.9548,3.9548,3.9549,3.9403,3.9529,3.9528,3.9527,3.9527,3.9526,3.926,3.9295,3.9318,3.9357,3.9375,3.9398,3.943,3.9438,3.9471,3.9508,3.9502,3.9545,3.9564,3.9603,3.9616,3.9649,3.9631,3.9648,3.9652,3.9656,3.9662,3.9543,3.9654,3.9654,3.9653,3.9653,3.9653,0,3.9372,3.9386,3.9422,3.9458,3.9488,3.9471,3.9497,3.9523,3.9562,3.9583,3.9612,3.9656,3.969,3.9699,3.9731,3.9756,3.9749,3.9764,3.9763,3.9765,3.9675,3.9662,3.9769,3.9769,3.9769,3.9769,3.9769,3.9769,3.9433,3.9491,3.9494,3.9559,3.9572,3.9616,3.9633,3.9653,3.967,3.9721,3.975,3.9756,3.9772,3.9805,3.9835,3.9837,3.985,3.9869,3.9867,3.9783,3.9771,3.976,3.9748,3.9871,3.9871,3.9954,3.9955,3.9955]}]]